| time (UTC) | temp C | wind direction | speed KPH | gust KPH | rain 1hr cm | rain 24hr cm | rain mn cm | humidity % | barometer mb |
| 20260906051558 | 10 | 325 | 9.7 | 17.7 | 0.00 | 0.00 | 0.00 | 80 | 1004.6 |
| 20260906050539 | 9 | 335 | 9.7 | 19.3 | 0.00 | 0.00 | 0.00 | 81 | 1004.5 |
| 20260906045537 | 9 | 335 | 12.9 | 27.4 | 0.00 | 0.00 | 0.00 | 82 | 1004.5 |
| 20260906044536 | 9 | 330 | 12.9 | 25.7 | 0.00 | 0.00 | 0.00 | 83 | 1004.5 |
| 20260906043534 | 9 | 323 | 12.9 | 24.1 | 0.00 | 0.00 | 0.00 | 84 | 1004.4 |
| 20260906042533 | 9 | 322 | 12.9 | 29.0 | 0.00 | 0.00 | 0.00 | 85 | 1004.3 |
| 20260906041532 | 9 | 314 | 12.9 | 29.0 | 0.00 | 0.00 | 0.00 | 86 | 1004.1 |
| 20260906040531 | 8 | 316 | 11.3 | 24.1 | 0.00 | 0.00 | 0.00 | 88 | 1003.9 |
| 20260906035530 | 8 | 318 | 11.3 | 22.5 | 0.00 | 0.00 | 0.00 | 89 | 1003.8 |
| 20260906034529 | 8 | 318 | 9.7 | 20.9 | 0.00 | 0.00 | 0.00 | 91 | 1003.7 |
| 20260906033528 | 8 | 313 | 11.3 | 27.4 | 0.00 | 0.00 | 0.00 | 91 | 1003.5 |
| 20260906032527 | 8 | 311 | 9.7 | 24.1 | 0.00 | 0.00 | 0.00 | 92 | 1003.4 |
| 20260906031547 | 8 | 311 | 12.9 | 24.1 | 0.00 | 0.00 | 0.00 | 92 | 1003.4 |
| 20260906030545 | 8 | 308 | 11.3 | 22.5 | 0.00 | 0.00 | 0.00 | 93 | 1003.2 |
| 20260906025524 | 8 | 299 | 11.3 | 22.5 | 0.00 | 0.00 | 0.00 | 93 | 1003.1 |
| 20260906024523 | 8 | 302 | 9.7 | 22.5 | 0.00 | 0.00 | 0.00 | 93 | 1002.9 |
| 20260906023524 | 8 | 304 | 11.3 | 20.9 | 0.00 | 0.00 | 0.00 | 93 | 1002.8 |
| 20260906022522 | 8 | 307 | 9.7 | 19.3 | 0.00 | 0.00 | 0.00 | 93 | 1002.7 |
| 20260906021520 | 8 | 308 | 8.0 | 19.3 | 0.00 | 0.00 | 0.00 | 94 | 1002.7 |
| 20260906020520 | 8 | 309 | 9.7 | 19.3 | 0.00 | 0.00 | 0.00 | 93 | 1002.6 |
| 20260906015518 | 8 | 315 | 9.7 | 19.3 | 0.00 | 0.00 | 0.00 | 93 | 1002.4 |
| 20260906014518 | 8 | 317 | 8.0 | 19.3 | 0.00 | 0.00 | 0.00 | 93 | 1002.3 |
| 20260906013518 | 8 | 323 | 8.0 | 16.1 | 0.00 | 0.00 | 0.00 | 93 | 1002.2 |
| 20260906012537 | 8 | 323 | 8.0 | 16.1 | 0.00 | 0.00 | 0.00 | 93 | 1002.2 |
| 20260906011546 | 8 | 310 | 6.4 | 16.1 | 0.00 | 0.00 | 0.00 | 93 | 1002.1 |
| 20260906010545 | 8 | 322 | 8.0 | 17.7 | 0.00 | 0.00 | 0.00 | 93 | 1002.0 |
| 20260906005544 | 8 | 318 | 6.4 | 16.1 | 0.00 | 0.00 | 0.00 | 94 | 1001.9 |
| 20260906004543 | 8 | 318 | 8.0 | 17.7 | 0.00 | 0.00 | 0.00 | 93 | 1001.8 |
| 20260906003542 | 8 | 317 | 8.0 | 17.7 | 0.00 | 0.00 | 0.00 | 93 | 1001.7 |
| 20260906002541 | 8 | 313 | 8.0 | 16.1 | 0.00 | 0.00 | 0.00 | 93 | 1001.6 |
| 20260906001541 | 8 | 313 | 8.0 | 16.1 | 0.00 | 0.00 | 0.00 | 93 | 1001.5 |
| 20260906000539 | 9 | 313 | 8.0 | 14.5 | 0.00 | 0.00 | 0.00 | 93 | 1001.4 |
| 20260905235538 | 9 | 307 | 6.4 | 16.1 | 0.00 | 0.00 | 0.00 | 93 | 1001.2 |
| 20260905234538 | 9 | 311 | 8.0 | 16.1 | 0.00 | 0.00 | 0.00 | 93 | 1001.1 |
| 20260905233537 | 9 | 309 | 8.0 | 16.1 | 0.00 | 0.00 | 0.00 | 93 | 1001.1 |
| 20260905232535 | 9 | 310 | 8.0 | 14.5 | 0.00 | 0.00 | 0.00 | 92 | 1001.0 |
| 20260905231534 | 9 | 309 | 8.0 | 16.1 | 0.00 | 0.00 | 0.00 | 91 | 1000.9 |
| 20260905230533 | 10 | 314 | 8.0 | 19.3 | 0.00 | 0.00 | 0.00 | 90 | 1000.8 |
| 20260905225532 | 10 | 313 | 8.0 | 19.3 | 0.00 | 0.00 | 0.00 | 90 | 1000.7 |
| 20260905224532 | 10 | 310 | 6.4 | 16.1 | 0.00 | 0.00 | 0.00 | 90 | 1000.6 |
| 20260905223531 | 10 | 315 | 6.4 | 12.9 | 0.00 | 0.00 | 0.00 | 89 | 1000.6 |
| 20260905222529 | 10 | 321 | 8.0 | 17.7 | 0.00 | 0.00 | 0.00 | 89 | 1000.5 |
| 20260905221528 | 10 | 312 | 8.0 | 17.7 | 0.00 | 0.00 | 0.00 | 88 | 1000.4 |
| 20260905220527 | 10 | 323 | 8.0 | 14.5 | 0.00 | 0.00 | 0.00 | 88 | 1000.3 |
| 20260905215526 | 10 | 318 | 8.0 | 16.1 | 0.00 | 0.00 | 0.00 | 88 | 1000.3 |
| 20260905214525 | 10 | 319 | 8.0 | 17.7 | 0.00 | 0.00 | 0.00 | 88 | 1000.3 |
| 20260905213604 | 10 | 317 | 9.7 | 17.7 | 0.00 | 0.00 | 0.00 | 88 | 1000.2 |
| 20260905212523 | 10 | 324 | 6.4 | 14.5 | 0.00 | 0.00 | 0.00 | 89 | 1000.0 |
| 20260905211522 | 11 | 325 | 8.0 | 14.5 | 0.00 | 0.00 | 0.00 | 87 | 1000.0 |
| 20260905210521 | 11 | 325 | 8.0 | 16.1 | 0.00 | 0.00 | 0.00 | 86 | 999.9 |
| 20260905205520 | 11 | 324 | 8.0 | 16.1 | 0.00 | 0.00 | 0.00 | 85 | 999.8 |
| 20260905204539 | 11 | 320 | 6.4 | 16.1 | 0.00 | 0.00 | 0.00 | 85 | 999.6 |
| 20260905203518 | 11 | 315 | 6.4 | 14.5 | 0.00 | 0.00 | 0.00 | 85 | 999.5 |
| 20260905202517 | 11 | 316 | 8.0 | 17.7 | 0.00 | 0.00 | 0.00 | 85 | 999.5 |
| 20260905201516 | 11 | 315 | 8.0 | 17.7 | 0.00 | 0.00 | 0.00 | 84 | 999.4 |
| 20260905200545 | 11 | 320 | 8.0 | 14.5 | 0.00 | 0.00 | 0.00 | 85 | 999.2 |
| 20260905195605 | 11 | 319 | 8.0 | 16.1 | 0.00 | 0.00 | 0.00 | 85 | 999.2 |
| 20260905194544 | 12 | 326 | 6.4 | 16.1 | 0.00 | 0.00 | 0.00 | 85 | 999.1 |
| 20260905193543 | 12 | 317 | 8.0 | 16.1 | 0.00 | 0.00 | 0.00 | 84 | 999.0 |
| 20260905192602 | 12 | 322 | 8.0 | 16.1 | 0.00 | 0.00 | 0.00 | 83 | 999.0 |
| 20260905191541 | 12 | 318 | 6.4 | 14.5 | 0.00 | 0.00 | 0.00 | 83 | 998.9 |
| 20260905190540 | 12 | 317 | 8.0 | 14.5 | 0.00 | 0.00 | 0.00 | 82 | 998.8 |
| 20260905185538 | 12 | 316 | 8.0 | 16.1 | 0.00 | 0.00 | 0.00 | 81 | 998.7 |
| 20260905184538 | 13 | 317 | 8.0 | 16.1 | 0.00 | 0.00 | 0.00 | 80 | 998.7 |
| 20260905183537 | 13 | 307 | 9.7 | 19.3 | 0.00 | 0.00 | 0.00 | 78 | 998.6 |
| 20260905182535 | 13 | 306 | 6.4 | 16.1 | 0.00 | 0.00 | 0.00 | 78 | 998.5 |
| 20260905181555 | 13 | 299 | 4.8 | 14.5 | 0.00 | 0.00 | 0.00 | 76 | 998.4 |
| 20260905180553 | 13 | 292 | 6.4 | 12.9 | 0.00 | 0.00 | 0.00 | 74 | 998.4 |
| 20260905175532 | 14 | 301 | 6.4 | 12.9 | 0.00 | 0.00 | 0.00 | 73 | 998.3 |
| 20260905174532 | 14 | 299 | 6.4 | 14.5 | 0.00 | 0.00 | 0.00 | 72 | 998.2 |
| 20260905173531 | 14 | 304 | 6.4 | 14.5 | 0.00 | 0.00 | 0.00 | 71 | 998.2 |
| 20260905172530 | 14 | 292 | 6.4 | 12.9 | 0.00 | 0.00 | 0.00 | 70 | 998.1 |
| 20260905171529 | 15 | 294 | 4.8 | 12.9 | 0.00 | 0.00 | 0.00 | 70 | 997.9 |
| 20260905170528 | 14 | 296 | 4.8 | 12.9 | 0.00 | 0.00 | 0.00 | 69 | 997.7 |
| 20260905165527 | 15 | 292 | 3.2 | 9.7 | 0.00 | 0.00 | 0.00 | 69 | 997.6 |
| 20260905164526 | 15 | 285 | 4.8 | 9.7 | 0.00 | 0.00 | 0.00 | 68 | 997.5 |
| 20260905163525 | 15 | 292 | 4.8 | 12.9 | 0.00 | 0.00 | 0.00 | 66 | 997.4 |
| 20260905162526 | 15 | 313 | 6.4 | 12.9 | 0.00 | 0.00 | 0.00 | 64 | 997.3 |
| 20260905161524 | 15 | 320 | 6.4 | 14.5 | 0.00 | 0.00 | 0.00 | 64 | 997.3 |
| 20260905160524 | 15 | 319 | 8.0 | 19.3 | 0.00 | 0.00 | 0.00 | 62 | 997.2 |
| 20260905155523 | 15 | 315 | 8.0 | 19.3 | 0.00 | 0.00 | 0.00 | 60 | 997.0 |
| 20260905154522 | 16 | 300 | 6.4 | 11.3 | 0.00 | 0.00 | 0.00 | 62 | 996.9 |
| 20260905153522 | 16 | 294 | 4.8 | 11.3 | 0.00 | 0.00 | 0.00 | 60 | 996.9 |
| 20260905152539 | 16 | 298 | 4.8 | 9.7 | 0.00 | 0.00 | 0.00 | 61 | 996.8 |
| 20260905151520 | 15 | 300 | 4.8 | 9.7 | 0.00 | 0.00 | 0.00 | 63 | 996.8 |
| 20260905150518 | 15 | 311 | 6.4 | 11.3 | 0.00 | 0.00 | 0.00 | 63 | 996.7 |
| 20260905145546 | 15 | 322 | 6.4 | 11.3 | 0.00 | 0.00 | 0.00 | 62 | 996.6 |
| 20260905144545 | 16 | 329 | 8.0 | 12.9 | 0.00 | 0.00 | 0.00 | 61 | 996.6 |
| 20260905143604 | 16 | 323 | 6.4 | 12.9 | 0.00 | 0.00 | 0.00 | 62 | 996.5 |
| 20260905142603 | 16 | 308 | 4.8 | 9.7 | 0.00 | 0.00 | 0.00 | 63 | 996.4 |
| 20260905141542 | 16 | 314 | 6.4 | 14.5 | 0.00 | 0.00 | 0.00 | 61 | 996.3 |
| 20260905140541 | 15 | 310 | 6.4 | 12.9 | 0.00 | 0.00 | 0.00 | 60 | 996.3 |
| 20260905135540 | 15 | 314 | 8.0 | 16.1 | 0.00 | 0.00 | 0.00 | 59 | 996.2 |
| 20260905134600 | 16 | 306 | 8.0 | 17.7 | 0.00 | 0.00 | 0.00 | 58 | 996.1 |
| 20260905133558 | 16 | 304 | 11.3 | 17.7 | 0.00 | 0.00 | 0.00 | 55 | 996.0 |
| 20260905132539 | 17 | 312 | 8.0 | 17.7 | 0.00 | 0.00 | 0.00 | 54 | 995.9 |
| 20260905131556 | 16 | 291 | 9.7 | 17.7 | 0.00 | 0.00 | 0.00 | 55 | 995.9 |
| 20260905130535 | 16 | 283 | 11.3 | 20.9 | 0.00 | 0.00 | 0.00 | 55 | 995.8 |
| 20260905125535 | 17 | 273 | 11.3 | 20.9 | 0.00 | 0.00 | 0.00 | 51 | 995.7 |
| 20260905124535 | 17 | 272 | 9.7 | 16.1 | 0.00 | 0.00 | 0.00 | 50 | 995.7 |
| 20260905123532 | 17 | 275 | 8.0 | 16.1 | 0.00 | 0.00 | 0.00 | 51 | 995.7 |
| 20260905122553 | 17 | 290 | 9.7 | 19.3 | 0.00 | 0.00 | 0.00 | 51 | 995.7 |
| 20260905121551 | 16 | 300 | 9.7 | 19.3 | 0.00 | 0.00 | 0.00 | 54 | 995.7 |
| 20260905120531 | 16 | 303 | 9.7 | 17.7 | 0.00 | 0.00 | 0.00 | 55 | 995.5 |
| 20260905115530 | 17 | 287 | 9.7 | 17.7 | 0.00 | 0.00 | 0.00 | 51 | 995.5 |
| 20260905114527 | 17 | 275 | 9.7 | 19.3 | 0.00 | 0.00 | 0.00 | 49 | 995.4 |
| 20260905113546 | 16 | 282 | 11.3 | 19.3 | 0.00 | 0.00 | 0.00 | 54 | 995.4 |
| 20260905112525 | 16 | 289 | 9.7 | 17.7 | 0.00 | 0.00 | 0.00 | 60 | 995.4 |
| 20260905111524 | 17 | 237 | 9.7 | 17.7 | 0.00 | 0.00 | 0.00 | 57 | 995.3 |
| 20260905110523 | 16 | 241 | 9.7 | 16.1 | 0.00 | 0.00 | 0.00 | 63 | 995.2 |
| 20260905105522 | 16 | 241 | 9.7 | 14.5 | 0.00 | 0.00 | 0.00 | 60 | 995.1 |
| 20260905104521 | 17 | 258 | 8.0 | 12.9 | 0.00 | 0.00 | 0.00 | 60 | 995.0 |
| 20260905103522 | 16 | 296 | 6.4 | 12.9 | 0.00 | 0.00 | 0.00 | 65 | 995.0 |
| 20260905102521 | 16 | 318 | 8.0 | 14.5 | 0.00 | 0.00 | 0.00 | 65 | 994.9 |
| 20260905101520 | 17 | 314 | 4.8 | 12.9 | 0.00 | 0.00 | 0.00 | 64 | 994.8 |
| 20260905100520 | 16 | 293 | 6.4 | 12.9 | 0.00 | 0.00 | 0.00 | 66 | 994.8 |
| 20260905095517 | 16 | 262 | 6.4 | 12.9 | 0.00 | 0.00 | 0.00 | 67 | 994.7 |
| 20260905094547 | 15 | 293 | 6.4 | 12.9 | 0.00 | 0.00 | 0.00 | 72 | 994.7 |
| 20260905093545 | 15 | 291 | 6.4 | 11.3 | 0.00 | 0.00 | 0.00 | 76 | 994.7 |
| 20260905092546 | 14 | 285 | 6.4 | 11.3 | 0.00 | 0.00 | 0.00 | 80 | 994.7 |
| 20260905091544 | 14 | 277 | 6.4 | 11.3 | 0.00 | 0.00 | 0.00 | 82 | 994.6 |
| 20260905090543 | 13 | 301 | 6.4 | 11.3 | 0.00 | 0.00 | 0.00 | 85 | 994.6 |
| 20260905085601 | 13 | 296 | 6.4 | 9.7 | 0.00 | 0.00 | 0.00 | 86 | 994.5 |
| 20260905084541 | 13 | 304 | 6.4 | 9.7 | 0.00 | 0.00 | 0.00 | 89 | 994.5 |
| 20260905083600 | 12 | 303 | 6.4 | 9.7 | 0.00 | 0.03 | 0.00 | 91 | 994.4 |
| 20260905082539 | 11 | 315 | 6.4 | 8.0 | 0.00 | 0.03 | 0.00 | 94 | 994.4 |
| 20260905081538 | 11 | 293 | 6.4 | 8.0 | 0.00 | 0.03 | 0.00 | 97 | 994.4 |
| 20260905080557 | 11 | 314 | 4.8 | 8.0 | 0.00 | 0.03 | 0.00 | 98 | 994.4 |
| 20260905075536 | 10 | 291 | 4.8 | 6.4 | 0.00 | 0.00 | 0.00 | 98 | 994.3 |
| 20260905074615 | 10 | 297 | 4.8 | 8.0 | 0.00 | 0.00 | 0.00 | 99 | 994.3 |
| 20260905073534 | 10 | 292 | 3.2 | 8.0 | 0.00 | 0.00 | 0.00 | 99 | 994.3 |
| 20260905072553 | 10 | 306 | 3.2 | 6.4 | 0.00 | 0.00 | 0.00 | 99 | 994.2 |
| 20260905071612 | 9 | 289 | 4.8 | 9.7 | 0.00 | 0.00 | 0.00 | 99 | 994.1 |
| 20260905070531 | 9 | 308 | 6.4 | 9.7 | 0.00 | 0.00 | 0.00 | 99 | 994.0 |
| 20260905065530 | 9 | 323 | 4.8 | 9.7 | 0.00 | 0.00 | 0.00 | 98 | 994.0 |
| 20260905064530 | 9 | 315 | 4.8 | 8.0 | 0.00 | 0.00 | 0.00 | 98 | 993.9 |
| 20260905063528 | 8 | 310 | 8.0 | 11.3 | 0.00 | 0.00 | 0.00 | 98 | 993.9 |
| 20260905062546 | 8 | 314 | 6.4 | 11.3 | 0.00 | 0.00 | 0.00 | 98 | 993.7 |
| 20260905061525 | 8 | 304 | 4.8 | 8.0 | 0.00 | 0.00 | 0.00 | 98 | 993.7 |
| 20260905060525 | 8 | 307 | 4.8 | 8.0 | 0.00 | 0.00 | 0.00 | 98 | 993.7 |
| 20260905055523 | 8 | 308 | 4.8 | 9.7 | 0.00 | 0.00 | 0.00 | 98 | 993.7 |
| 20260905054522 | 8 | 313 | 6.4 | 9.7 | 0.00 | 0.00 | 0.00 | 98 | 993.6 |
| 20260905053521 | 8 | 301 | 4.8 | 9.7 | 0.00 | 0.00 | 0.00 | 98 | 993.6 |
| 20260905052522 | 8 | 314 | 6.4 | 9.7 | 0.00 | 0.00 | 0.00 | 98 | 993.6 |